Weather in Columbia

United States     39°13′14″N   76°51′34″W
temp.,
°C
wind,
m/s
gust,
m/s
humid.,
%
clouds,
%
prec.,
mm/h
press.,
hPa
HPBL,
m
21 june, mon
mon2123:00+25ssw41077100 0.0 1009480
02:00+23ssw2890100 0.0 1007328
05:00+22ssw2897100 0.0 1007307
08:00+23ssw3588100 0.0 1007374
11:00+29ssw2261100 0.0 1006674
14:00+33sw354521 0.0 10042111
17:00+29wsw4865100 1.2 10021159
20:00+23se12939 5.0 100499
22 june, tue
tue2223:00+22ssw2497100 12.7 1006153
02:00+21w41090100 12.8 1006526
05:00+20nnw388472 0.0 1007426
08:00+20nnw4868100 0.0 1010606
11:00+16n3795100 2.8 1011411
14:00+16n2394100 12.6 1012377
17:00+20nw367971 0.4 1012839
20:00+19n2373100 0.7 1014111
23 june, wed
wed2323:00+16nnw2667100 0.0 1017188
02:00+14nnw24660 0.0 1018112
05:00+13nw22670 0.0 102060
08:00+16n24565 0.0 1022284
11:00+20n23400 0.0 10241441
14:00+23nne22360 0.0 10231986
17:00+24nne11376 0.0 10232092
20:00+20se245176 0.0 1025205
24 june, thu
thu2423:00+18se1153100 0.0 102612
02:00+17se116264 0.0 102623
05:00+15s1176100 0.0 102711
08:00+18ese126875 0.0 1028282
11:00+23ese45430 0.0 10281314
14:00+25ese34350 0.0 10271685
17:00+25ese45360 0.0 10251525
20:00+21ese46530 0.0 1026555
25 june, fri
fri2523:00+19ese37782 0.0 1026384
02:00+18e2587100 0.1 1025344
05:00+18ene268896 0.1 1024340
08:00+18ne2488100 0.1 1024268
11:00+19ene2389100 0.1 1024259
14:00+24ese347599 0.4 1022959
17:00+25sse4676100 1.1 1020913
20:00+22sse3991100 2.3 1020589